Flag for U.S.A. Weather past 2 weeks in Lakeland, Florida, U.S.A.

Now
88 °F

Broken clouds.


Feels Like: 98 °F
Forecast: 75 / 86 °F
Wind: 5 mph from East

Location: Lakeland Regional

Current Time: Aug 31, 2015 at 6:43:30 PM

Latest Report: Aug 31, 2015 at 5:46 PM


Visibility: 10 mi

Pressure: 30.01 "Hg

Humidity: 66%

Dew point: 75 °F

Location of LakelandLocation

Historic Weather in Lakeland — Graph

°F

Lakeland temperature yesterday

Maximum temperature yesterday: 88 °F (at 2:50 PM)
Minimum temperature yesterday: 72 °F (at 3:55 AM)
Average temperature yesterday: 77 °F

Past Weeks' High & Low Weather Summary

 TemperatureHumidityPressure
High95 °F (Aug 22, 4:50 PM)100% (Aug 16, 8:20 PM)30.13 "Hg (Aug 16, 8:20 PM)
Low34 °F (Aug 16, 8:20 PM)49% (Aug 18, 3:50 PM)29.87 "Hg (Aug 25, 5:50 PM)
Average79 °F86%30.01 "Hg
* Reported Aug 16 4:50 PM — Aug 31 4:50 PM, Lakeland, Weather by CustomWeather, © 2015

Note: Actual official high and low records may vary slightly from our data, if they occured in-between our weather recording intervals... More about our weather records

Advertising

Lakeland weather history for previous 24 hours

 ConditionsComfort  
Time TempWeatherWind HumidityBarometerVisibility
4:50 PM
Mon, Aug 31
84 °FBroken clouds.7 mph79%30.02 "Hg10 mi
3:50 PM84 °FScattered clouds.No wind74%30.02 "Hg10 mi
2:50 PM81 °FLight rain. Partly sunny.No wind84%30.04 "Hg7 mi
1:50 PM86 °FPartly sunny.7 mph70%30.05 "Hg10 mi
12:50 PM84 °FScattered clouds.9 mph74%30.07 "Hg10 mi
11:50 AM84 °FScattered clouds.8 mph74%30.08 "Hg10 mi
10:50 AM81 °FPassing clouds.8 mph84%30.07 "Hg10 mi
9:50 AM79 °FPartly sunny.7 mph89%30.05 "Hg10 mi
8:50 AM79 °FPartly sunny.5 mph89%30.04 "Hg10 mi
7:50 AM77 °FPassing clouds.No wind94%30.02 "Hg10 mi
6:50 AM77 °FPartly cloudy.No wind94%30.00 "Hg10 mi
5:50 AM77 °FPassing clouds.6 mph94%30.00 "Hg10 mi
5:35 AM77 °FClear.6 mph89%30.00 "Hg10 mi
5:15 AM77 °FPassing clouds.6 mph89%30.00 "Hg10 mi
4:55 AM75 °FPassing clouds.5 mph94%30.00 "Hg10 mi
4:35 AM77 °FPassing clouds.5 mph89%30.00 "Hg10 mi
4:15 AM77 °FPassing clouds.5 mph89%30.00 "Hg10 mi
3:55 AM77 °FClear.6 mph89%30.00 "Hg10 mi
3:35 AM75 °FClear.6 mph94%30.00 "Hg10 mi
3:15 AM75 °FClear.5 mph94%30.00 "Hg10 mi
2:55 AM75 °FPartly cloudy.5 mph94%30.01 "Hg10 mi
2:35 AM77 °FOvercast.3 mph89%30.02 "Hg10 mi
2:15 AM77 °FPassing clouds.7 mph89%30.02 "Hg10 mi
1:55 AM75 °FPassing clouds.5 mph94%30.02 "Hg10 mi
1:35 AM75 °FClear.7 mph94%30.01 "Hg10 mi
1:15 AM75 °FClear.5 mph94%30.03 "Hg10 mi
12:55 AM77 °FPassing clouds.5 mph89%30.03 "Hg10 mi
12:35 AM77 °FMostly cloudy.5 mph89%30.03 "Hg10 mi
12:15 AM77 °FPartly cloudy.3 mph89%30.03 "Hg10 mi
11:55 PM
Sun, Aug 30
77 °FPartly cloudy.3 mph89%30.03 "Hg10 mi
11:35 PM77 °FPassing clouds.No wind89%30.02 "Hg10 mi
11:15 PM77 °FClear.No wind89%30.02 "Hg10 mi
10:55 PM77 °FPassing clouds.3 mph89%30.03 "Hg10 mi
10:35 PM77 °FPassing clouds.3 mph89%30.03 "Hg10 mi
10:15 PM77 °FClear.6 mph89%30.03 "Hg10 mi
8:50 PM81 °FScattered clouds.8 mph84%30.00 "Hg10 mi
7:50 PM81 °FBroken clouds.8 mph84%29.98 "Hg10 mi
6:50 PM82 °FScattered clouds.8 mph79%29.97 "Hg10 mi
Weather by CustomWeather, © 2015

See weather overviewHow to use our weather pages